Location: Les Jeannots
(43.2262°N, 5.5774°E)
Time: 18:11:49
(UTC+00:00)

Cosmos 1328 Rocket - Pass Details

Date: 05 July 2020
Orbit: 601 x 627 km, 82.5° (Epoch: 12 August)

Event Time Altitude Azimuth Distance (km) Brightness Sun altitude
Rises 22:43:49 0° 359° (N) 2,864 8.3 -22.7°
Reaches altitude 10° 22:46:09 10° 7° (N) 1,955 7.1 -22.8°
Maximum altitude 22:50:13 39° 77° (ENE) 903 4.3 -23.0°
Enters shadow 22:50:27 39° 85° (E) 908 4.3 -23.0°
